User: anonymous   Login
Location: Space Photons Observatory
(33.2428°N, 111.5467°W)
Time: 16:59:22
(UTC-07:00)
Language:

RESURS DK-1 - Orbit

View from above orbital plane
View from above orbital plane
View from above satellite
View from above satellite

Ground track
Ground track

The orbit data is extracted from the following two-line orbital elements,

1 29228U 06021A   17177.23052074 +.00000094 +00000-0 +14553-4 0  9993
2 29228 069.9363 075.0717 0006818 305.3848 054.6675 15.02164899609454
Epoch (UTC): 26 June 2017 05:31:56
Eccentricity: 0.0006818
inclination: 69.9363°
perigee height: 555 km
apogee height: 565 km
right ascension of ascending node: 75.0717°
argument of perigee: 305.3848°
revolutions per day: 15.02164899
mean anomaly at epoch: 54.6675°
orbit number at epoch: 60945

The dashed part of the orbit path shows where the satellite is in the earth's shadow,  

DLR